sat.trackr.live / text

‹ back to catalog

SDA_1665

NORAD 65975 · 2025-230B

PAYLOAD ACTIVE UNKNOWN

§ Identity

Operator
Country
US
Launch date
2025-10-15
Launch site
AFWTR
Launch vehicle
Mass (kg)
RCS (m²)

External: N2YO · Heavens-Above · Gunter

§ Orbital elements

Epoch: 2026-05-24T23:41:35.508192Z

Period
104.19 min
Inclination
81.3018°
Eccentricity
0.0001243
Mean motion
13.82038131 rev/d
Perigee alt
955.8 km
Apogee alt
957.6 km
Semi-major
7,334.8 km
B*
1.0133e-4
RAAN
233.3416°
Arg perigee
107.4999°
Mean anomaly
252.6293°
Rev number
3,059

§ Raw data

SDA_16651 65975U 25230B   26144.98721653  .00000121  00000+0  10133-3 0  99962 65975  81.3018 233.3416 0001243 107.4999 252.6293 13.82038131 30592

JSON: /api/v1/satellites/65975 · /tle

For live sub-satellite position, see the globe view (requires WebGL).

§ Visibility from observer

Set your observer location to see the next 7 days of passes ≥ 10°. The values pass through the URL so the page stays shareable.

No JS? Fill the form by hand. The geolocation button needs JavaScript.